Location: ?????oe
(44.4874°N, 135.7046°E)
Time: 02:29:40
(UTC+00:00)

Cosmos 1125 Rocket - Pass Details

Date: 13 December 2025
Orbit: 754 x 775 km, 74.0° (Epoch: 12 January)

Event Time Altitude Azimuth Distance (km) Brightness Sun altitude
Exits shadow 20:52:28 - 341° (NNW) 2,423 5.7 -15.9°
Reaches altitude 10° 20:52:45 10° 341° (NNW) 2,317 5.6 -15.8°
Maximum altitude 20:58:01 81° 68° (ENE) 779 3.6 -14.9°
Drops below altitude 10° 21:03:13 10° 157° (SSE) 2,286 6.6 -14.1°
Sets 21:05:34 0° 158° (SSE) 3,204 7.4 -13.7°
